SCP
0 0 0 0 0 0 0 -0 0 0 0 0 -0 0 0 0 0 0 0 0 0 0 0 0 -0 0 0 0 0 0 0 0 0 0 0 0 0 0 0 0 0 0 0 0 0 0 0 1 0 0 1 1 0 0
0 0 0 0 0 0 0 0 -0 -0 0 -0 -0 -0 0 0 0 0 0 0 0 0 0 0 0 0 -0 0 0 0 0 0 0 0 0 0 -0 0 0 0 0 0 0 0 0 1 1 1 1 1 0 1 0 1
0 0 0 0 0 0 0 0 0 0 0 -0 -0 -0 0 0 0 -0 -0 -0 -0 0 -0 -0 0 -0 -0 -0 -0 0 0 0 0 0 0 0 0 0 0 0 0 1 0 0 1 1 1 0 0 1 1 1 1 1
0 0 0 0 0 0 0 0 0 0 0 -0 0 0 -0 -0 0 -0 -0 -0 -0 -0 -0 0 0 -0 -0 -0 -0 -0 0 0 0 0 0 -0 -0 -0 0 0 1 0 0 2 3 1 1 0 0 0 0 1 1 1
0 0 0 0 0 0 0 0 0 -0 -0 -0 -0 -0 -0 -0 0 0 -0 -0 -0 -0 0 0 -0 0 -0 0 0 0 0 0 0 0 0 -0 0 -0 0 -0 0 0 0 1 2 0 1 0 0 0 0 0 0 0
0 0 0 0 0 0 -0 -0 -0 -0 -0 0 0 0 -0 -0 0 0 0 -0 -0 -0 0 0 0 0 0 0 0 0 0 0 0 0 0 0 0 0 0 -0 0 0 0 0 0 0 0 0 0 0 0 0 0 0
0 0 0 0 0 0 0 -0 0 0 0 0 -0 0 0 0 -0 0 0 0 -0 0 0 0 0 0 0 0 0 0 -0 -0 -0 0 0 0 0 0 0 0 0 0 0 0 0 0 0 0 0 0 0 0 0 0
0 0 0 0 0 0 0 0 0 -0 -0 -0 0 0 -0 -0 -0 0 0 0 0 0 0 0 0 0 0 -0 -0 -0 -0 -0 -0 0 0 0 0 0 0 0 0 0 0 0 0 0 0 0 0 0 0 0 0 0
0 0 0 0 0 0 0 0 0 -0 -0 -0 -0 -0 0 0 0 0 0 0 0 0 0 0 0 0 0 0 0 -0 0 -0 -0 0 0 0 0 0 0 0 0 0 0 0 0 0 0 0 0 0 0 0 0 0
0 0 0 0 0 0 0 0 0 -0 -0 -0 0 0 0 0 0 0 0 0 0 0 0 0 0 0 0 0 -0 0 0 -0 0 0 0 0 0 0 0 0 0 0 0 0 0 0 0 0 0 0 0 0 0 0
0 0 0 0 0 0 0 0 0 -0 0 0 0 0 0 0 0 0 0 0 0 0 0 0 0 0 -0 0 0 0 0 0 0 0 0 0 0 0 0 0 0 0 0 0 0 0 0 0 0 0 0 0 0 0
0 0 0 0 0 0 0 0 0 0 0 0 0 0 0 0 0 0 0 0 0 0 0 0 0 0 0 0 0 0 0 0 0 0 0 0 0 0 0 0 0 0 0 0 0 0 0 0 -0 -0 -0 -0 -0 -0
0 0 0 0 0 0 0 0 0 0 0 0 0 0 0 0 0 0 0 0 0 0 0 0 0 0 0 0 0 -0 0 0 0 0 0 0 -0 -0 0 -0 -0 -0 -0 0 0 -0 -0 -0 -0 -0 -0 0 -0 -0
0 0 0 0 0 0 0 0 0 0 0 0 0 0 0 0 0 0 0 0 0 0 0 0 0 0 0 0 -0 0 -0 0 0 0 0 -0 -0 0 0 0 -0 -0 -0 -0 -0 -0 -0 -0 0 -0 -0 -0 0 0
0 -0 0 0 0 -0 0 0 0 0 0 0 0 0 0 0 -0 -0 -0 0 0 0 0 0 0 0 0 0 0 0 0 0 0 0 0 0 -0 -0 0 -0 -0 0 -0 -0 -0 -0 -0 -0 0 0 0 0 0 0
0 0 0 0 -0 -0 -0 0 0 0 0 0 0 0 0 0 -0 -0 -0 0 0 0 0 0 0 0 0 0 0 0 0 0 0 0 0 0 0 -0 0 0 0 -0 0 -0 -0 0 0 -0 -0 0 0 0 0 0
-0 0 -0 0 -0 -0 0 0 0 0 0 0 0 0 0 0 0 0 0 0 0 0 0 0 0 0 0 0 0 0 0 0 0 0 0 0 -0 -0 -0 -0 -0 0 -0 -0 0 -0 -0 -0 0 0 0 0 0 0
0 0 -0 0 0 0 0 0 0 0 0 0 0 0 0 0 0 0 0 0 0 -0 -0 0 0 0 0 0 0 0 0 0 0 -0 -0 -0 -0 0 0 0 -0 -0 -0 -0 0 0 0 0 -0 -0 -0 -0 -0 -0
0 0 0 0 0 0 0 0 0 0 0 0 0 0 0 0 0 0 0 0 0 0 0 0 0 0 0 0 0 0 0 0 0 -0 -0 -0 -0 -0 0 0 0 0 -0 -0 -0 0 0 0 0 0 0 0 0 0
0 0 0 0 0 0 0 0 0 0 0 0 0 0 0 0 0 0 0 0 0 0 0 0 0 0 0 0 0 0 -0 -0 -0 -0 -0 0 -0 -0 -0 -0 0 0 0 0 0 0 0 0 0 0 0 0 0 0
0 0 0 0 0 0 0 0 0 0 0 0 0 0 0 0 0 0 0 0 0 0 0 0 0 0 0 0 0 -0 -0 -0 -0 -0 0 -0 -0 -0 0 0 0 0 0 0 0 0 0 0 0 0 0 0 0 0
0 0 0 0 0 0 0 0 0 0 0 0 0 0 0 0 0 0 0 0 0 0 0 0 0 -0 -0 -0 -0 -0 -0 0 0 -0 -0 -0 0 0 0 0 0 0 0 0 0 0 0 0 0 0 0 0 0 0
0 0 0 0 0 0 0 0 0 0 0 0 0 0 0 0 0 0 0 0 0 0 0 0 -0 0 0 0 0 -0 -0 -0 0 0 -0 -0 0 0 0 0 0 0 0 0 0 0 0 0 0 0 0 0 0 0
0 0 0 0 0 0 0 0 0 0 0 0 0 0 0 0 0 0 0 0 0 0 -0 -0 -0 -0 0 0 0 0 -0 -0 0 0 0 -0 0 0 0 0 0 0 0 0 0 0 0 0 0 0 0 0 0 0
0 0 0 0 0 0 0 0 0 0 0 0 0 0 0 0 0 0 0 0 0 -0 -0 0 0 -0 0 -0 0 0 -0 0 0 -0 0 0 0 0 0 0 0 0 0 0 0 0 0 0 0 0 0 0 0 0
0 0 0 0 0 0 0 0 0 0 0 0 0 0 0 0 0 0 0 0 0 0 0 0 0 0 0 0 0 0 -0 0 0 0 0 0 0 0 0 0 0 0 0 0 0 0 0 0 0 0 0 0 0 0
0 0 0 0 0 0 0 0 0 0 0 0 0 0 0 0 0 0 0 0 0 0 0 0 0 0 0 0 0 0 0 0 0 0 0 0 0 0 0 0 0 0 0 0 0 0 0 0 0 0 0 0 0 0
0 0 0 0 0 0 0 0 0 0 -0 0 0 0 0 0 0 0 0 0 0 0 0 0 0 -0 0 0 0 0 0 0 0 0 0 0 0 0 0 0 0 0 0 0 0 0 0 0 0 0 0 0 0 0
0 0 0 0 0 0 0 0 0 0 0 0 0 0 0 0 0 0 0 0 0 0 0 -0 0 0 0 0 0 0 0 0 0 0 0 0 0 0 0 0 0 0 0 0 0 0 0 0 0 0 0 0 0 0
0 0 0 0 -0 0 0 0 0 0 0 0 0 0 0 0 0 0 0 0 0 0 0 0 0 0 0 0 0 0 0 0 0 0 0 0 0 0 0 0 0 0 0 0 0 0 0 0 0 0 0 0 0 0
0 -0 0 0 0 0 0 0 0 0 0 0 0 0 -0 -0 0 0 0 0 0 0 0 0 0 0 0 0 0 0 0 0 0 0 0 0 0 0 0 0 0 0 0 0 0 0 0 0 0 0 0 0 0 0
0 0 0 0 0 0 0 0 0 0 0 0 0 0 0 0 0 0 0 0 0 0 0 0 0 0 0 0 0 0 0 0 0 0 0 0 0 0 0 0 0 0 0 0 0 0 0 0 0 0 0 0 0 0
0 0 0 0 0 0 0 0 0 0 0 0 0 0 0 0 0 0 0 0 0 0 0 0 0 0 0 0 0 0 0 0 0 0 0 0 0 0 0 0 0 0 0 0 0 0 0 0 0 0 0 0 0 0
Wind_Speed_500mb
62 62 61 59 56 57 53 48 41 34 29 31 29 28 27 24 26 29 32 31 39 20 48 56 56 60 52 46 20 30 11 8 7 13 19 25 28 38 39 43 48 46 41 37 38 46 47 10 21 20 11 24 31 34
59 56 53 49 51 51 44 36 34 23 25 26 26 27 22 25 24 26 36 35 30 42 38 38 43 51 47 47 58 45 25 7 9 8 5 11 8 17 32 33 50 47 40 33 14 17 20 22 16 13 10 18 23 23
51 48 45 46 48 41 31 27 21 24 22 29 22 20 24 23 21 25 31 26 31 19 48 53 47 45 48 58 61 45 35 25 10 18 9 6 13 9 18 24 33 13 25 35 24 24 25 24 23 16 11 4 21 29
45 47 44 41 46 35 30 24 21 24 23 23 25 21 15 16 18 24 25 23 25 16 9 31 20 12 12 30 48 57 43 9 6 22 16 6 9 11 6 13 9 12 27 14 34 31 35 36 36 25 23 21 21 42
46 43 38 37 36 34 29 26 24 31 24 25 19 15 15 16 21 14 14 12 19 20 9 37 45 23 28 35 33 44 46 36 23 9 6 6 11 7 11 3 11 5 9 8 16 37 43 33 29 28 29 30 33 40
44 41 39 38 38 36 34 30 27 27 26 19 17 18 18 17 23 22 4 4 21 25 11 9 20 9 4 25 25 31 33 24 10 3 10 10 19 20 9 5 16 16 25 25 31 48 55 47 42 35 36 30 28 40
42 41 38 39 39 38 36 37 33 28 27 23 22 22 19 19 19 15 12 14 20 12 5 9 9 7 12 25 31 27 27 24 9 7 10 10 12 26 5 5 15 26 32 32 46 53 44 31 31 30 34 31 25 36
39 40 40 40 38 36 36 38 36 35 32 28 25 23 23 24 20 17 16 10 11 10 9 6 9 10 25 29 23 25 27 23 30 9 7 7 19 6 2 10 29 31 42 48 47 47 44 34 39 38 41 35 30 31
41 41 41 41 39 40 39 39 38 37 32 25 22 16 11 6 6 8 22 11 5 13 4 7 4 7 36 6 8 17 8 8 8 2 4 8 2 5 11 29 43 37 27 36 42 54 55 52 38 31 38 30 24 21
39 39 37 37 38 39 44 48 47 36 22 21 18 8 9 6 20 19 6 7 8 12 13 7 10 9 15 20 13 13 13 5 2 8 9 4 8 28 34 41 44 44 39 39 44 40 44 42 29 25 33 26 15 25
34 34 38 44 51 57 56 51 46 36 26 17 12 9 22 21 10 7 6 7 8 7 10 10 15 12 18 5 10 7 6 10 7 5 2 7 5 13 36 42 46 46 54 55 50 43 35 26 25 15 16 15 16 10
32 37 45 50 59 63 56 48 43 31 22 17 17 16 16 8 8 8 6 8 7 5 5 10 16 13 6 5 6 16 4 2 6 6 7 5 5 16 26 29 28 31 32 30 30 36 28 22 12 9 9 5 3 6
38 44 48 53 69 66 53 43 39 33 16 10 8 9 12 10 8 11 15 6 11 19 8 9 11 9 5 30 12 9 3 9 9 8 6 5 5 10 21 29 30 24 24 22 22 16 8 2 7 6 9 8 11 10
41 44 42 56 70 64 46 38 36 24 13 8 11 9 10 9 9 9 19 18 28 36 32 27 21 9 15 4 9 10 5 4 9 8 9 12 21 13 16 21 25 24 20 22 24 19 17 17 18 12 16 14 15 16
45 42 40 60 61 51 42 32 32 22 14 10 10 9 9 17 33 27 32 33 35 35 28 24 16 5 12 9 12 13 10 12 12 7 6 22 25 16 18 18 19 19 21 20 17 20 19 16 16 17 21 18 15 16
46 27 38 56 53 43 36 22 23 14 7 4 4 5 21 20 30 41 41 40 42 38 25 4 9 10 18 10 14 17 8 10 6 6 13 22 18 15 14 16 17 18 20 21 18 21 20 16 14 17 19 19 20 21
34 28 50 51 49 29 33 19 12 12 14 8 11 32 30 30 29 37 39 43 40 35 16 10 15 12 4 9 9 10 7 7 8 2 15 17 16 14 13 16 19 16 19 21 14 12 10 12 18 17 17 15 15 18
34 42 45 47 46 25 15 18 9 10 11 24 23 31 29 28 33 34 34 36 26 29 30 14 16 22 11 9 7 2 6 9 7 15 15 16 16 16 16 16 17 18 18 17 13 13 16 17 16 16 9 13 2 14
38 38 37 37 34 15 12 12 10 10 13 22 28 26 25 27 28 28 28 24 23 26 19 15 13 11 11 8 22 25 25 23 16 18 20 21 20 22 21 19 23 23 23 25 25 27 22 20 21 25 22 21 21 20
27 23 29 21 27 8 7 8 9 8 14 15 25 23 24 28 28 30 35 37 34 35 22 11 17 25 24 24 25 28 28 27 22 19 23 24 26 26 28 25 24 20 20 18 22 24 21 19 20 21 20 19 20 22
15 17 12 20 10 12 8 11 9 9 10 13 22 15 27 35 37 34 45 33 38 36 26 28 30 29 28 27 29 29 33 31 28 23 19 22 24 20 18 19 17 17 18 20 21 21 21 21 23 24 21 19 17 20
18 19 11 14 11 8 10 14 8 11 9 7 22 29 18 19 23 29 24 30 12 19 21 27 32 38 44 43 40 37 33 25 29 26 19 16 18 16 15 14 15 17 18 20 22 23 24 25 24 26 22 22 22 21
18 16 9 10 8 9 7 13 7 10 8 8 12 8 5 7 12 14 12 20 24 34 31 28 31 32 34 35 40 43 44 37 32 29 27 20 14 15 15 15 17 16 18 21 22 23 25 26 27 26 24 25 24 22
15 9 7 8 11 7 7 9 7 5 6 7 6 5 6 9 8 8 6 9 12 20 31 37 33 31 33 36 42 44 45 39 34 32 30 30 28 23 17 14 16 17 17 20 25 27 29 30 29 26 25 27 25 25
8 9 7 6 3 6 4 5 6 4 6 6 5 4 5 4 4 7 9 16 31 37 31 27 27 31 34 35 37 40 43 42 39 34 33 32 30 27 26 26 25 25 22 25 34 36 35 34 31 29 29 28 28 29
4 4 6 15 9 9 10 9 7 7 6 5 5 5 1 3 4 11 10 31 30 29 31 31 31 31 33 36 38 41 41 38 34 31 30 28 27 26 27 29 29 31 33 35 36 35 35 33 32 31 31 29 28 29
7 10 4 5 7 8 8 5 5 5 5 5 6 6 4 7 12 9 14 21 22 24 25 29 30 30 32 33 35 36 37 36 35 32 28 23 19 21 26 32 34 34 33 28 28 32 32 31 33 33 33 32 33 34
9 13 13 16 9 7 10 14 10 11 13 15 14 11 7 10 7 12 17 20 19 25 33 31 28 25 28 32 34 35 32 34 33 30 25 16 20 24 27 27 29 30 29 27 30 28 27 30 35 34 32 31 32 32
6 12 15 16 9 8 14 14 17 20 29 27 6 9 7 8 12 16 22 18 22 25 24 20 26 28 30 32 32 32 29 33 36 36 33 31 31 32 32 31 31 30 29 29 34 30 29 37 33 28 26 30 32 30
23 16 4 13 23 11 21 23 27 25 28 26 25 32 32 22 9 7 15 16 17 19 24 26 28 31 36 36 33 30 26 29 31 33 33 33 35 33 32 32 32 31 30 30 29 28 32 32 29 27 29 29 31 32
17 24 18 16 15 11 19 17 22 23 24 26 21 20 14 12 12 19 22 22 24 25 27 30 29 30 32 32 31 28 27 27 27 29 33 27 26 27 28 29 28 29 29 29 29 29 32 32 31 31 30 30 31 31
11 9 9 5 10 10 14 6 5 12 10 9 12 9 9 7 6 10 26 30 29 30 28 27 28 28 28 27 26 25 26 24 22 29 35 28 25 24 26 28 29 31 29 28 28 28 29 30 30 30 31 31 32 32
8 19 18 17 9 3 11 11 7 6 6 9 8 8 12 13 11 18 20 30 26 27 27 27 25 25 25 26 28 27 24 22 27 31 39 37 33 30 26 27 28 32 31 29 28 28 29 31 30 31 32 32 33 33
Wind_Direction_500mb
326 322 321 323 321 321 317 314 309 306 304 299 288 285 280 280 276 260 264 250 243 249 264 266 271 276 279 285 263 279 268 165 227 239 238 239 239 236 239 225 209 205 202 217 211 229 235 79 188 229 7 326 315 309
333 330 328 331 330 327 323 320 320 318 307 307 306 295 278 285 287 266 270 279 270 242 256 280 267 266 259 253 269 280 289 300 293 273 343 320 288 289 235 251 210 206 210 207 228 206 83 54 59 61 17 326 319 318
346 344 341 341 341 336 335 332 330 318 308 317 311 301 293 288 283 280 282 264 271 273 285 268 267 273 250 241 237 258 258 244 242 330 315 276 267 315 263 230 221 338 232 214 141 122 104 103 87 80 91 43 18 24
347 347 346 348 354 351 351 354 349 345 333 330 320 307 300 294 288 281 277 271 265 263 277 294 275 280 252 230 220 218 229 139 345 327 300 260 282 336 261 327 337 37 284 129 103 119 106 91 83 91 83 74 61 48
350 350 351 356 360 359 356 348 339 339 340 331 325 322 311 307 314 316 296 284 256 244 286 296 301 278 235 219 210 213 224 248 276 312 285 265 286 322 291 266 3 15 22 349 208 151 88 104 93 101 96 86 78 80
8 10 8 7 4 3 0 355 350 343 338 332 323 320 318 325 341 310 269 331 262 252 282 300 312 268 246 183 188 196 208 212 205 308 270 267 271 342 316 48 6 343 291 324 81 104 109 105 100 90 77 78 80 86
13 11 8 9 9 1 356 354 348 341 337 325 320 311 302 294 302 294 302 306 305 238 266 284 270 254 178 165 178 182 185 171 148 234 251 286 310 353 329 35 29 23 65 96 107 107 93 90 84 81 62 53 61 73
4 1 3 1 2 3 0 358 351 345 334 324 316 311 304 299 292 273 360 294 219 244 245 272 287 286 180 162 150 170 175 173 195 214 297 307 332 296 281 116 92 77 81 75 85 93 96 86 70 63 59 52 30 52
5 6 5 5 5 0 356 357 349 339 340 337 330 321 305 264 280 299 333 346 316 223 296 244 256 268 159 266 178 150 156 202 77 76 260 203 266 268 96 77 72 75 83 96 85 83 82 67 58 59 62 42 26 39
6 5 6 8 5 358 351 348 349 343 345 7 5 289 285 332 307 296 226 226 226 216 222 257 286 301 13 180 142 138 179 82 243 225 205 105 39 54 80 80 86 85 90 93 81 70 74 72 35 49 47 30 26 29
7 11 5 1 357 349 342 341 345 353 6 351 326 303 310 312 306 247 248 224 228 243 230 305 316 333 43 4 37 4 154 179 202 163 184 75 350 53 70 81 87 92 88 84 85 82 91 86 64 31 39 28 358 21
1 1 360 359 358 354 350 345 342 345 323 307 313 311 333 337 308 309 304 287 258 325 102 304 326 322 173 269 269 173 198 104 83 242 86 69 322 68 70 78 83 90 88 96 91 85 86 71 52 339 118 114 61 22
351 349 349 355 357 354 352 353 351 348 1 359 332 330 351 0 348 339 355 329 341 348 307 270 296 351 239 215 238 150 108 51 120 58 43 94 206 78 74 107 104 99 101 102 112 102 76 153 116 88 74 61 105 78
346 347 350 359 356 350 350 355 1 15 26 25 7 17 22 344 334 337 327 333 312 353 352 0 327 348 345 308 75 342 85 160 71 58 28 98 95 73 58 80 105 101 97 100 99 89 82 68 56 51 77 77 79 69
340 343 353 356 348 350 354 353 13 28 12 37 27 12 348 304 303 286 314 345 352 340 343 346 283 350 16 30 14 9 41 45 30 26 64 103 125 112 93 84 79 88 96 91 81 74 57 54 62 58 54 65 69 87
343 3 337 344 350 350 355 10 14 352 354 23 72 1 343 331 357 2 359 358 350 327 321 323 352 27 29 23 20 13 36 31 13 354 80 103 89 91 92 87 80 64 57 83 86 72 57 51 62 63 55 50 44 46
349 334 338 345 352 353 14 24 11 14 14 15 336 15 360 358 356 359 352 354 346 2 2 16 30 26 85 37 39 28 352 301 276 308 69 62 63 59 54 63 68 72 52 58 68 68 22 35 50 48 34 23 41 33
327 327 340 345 351 13 8 13 8 16 17 22 10 7 357 4 4 357 1 7 13 12 35 50 39 40 46 33 45 102 292 330 61 78 82 72 60 53 54 58 61 66 68 50 32 44 48 21 24 46 62 13 186 56
326 331 341 349 357 34 7 14 16 9 15 35 3 11 11 14 15 17 15 21 31 32 51 40 48 39 56 60 24 33 41 33 48 63 59 52 54 49 54 58 63 63 64 52 40 46 57 43 25 13 11 6 3 30
328 330 354 3 25 17 360 15 5 354 13 351 15 15 23 18 24 29 33 38 52 58 63 67 64 52 44 41 31 28 25 26 34 56 50 55 67 60 59 60 59 59 61 54 49 35 28 18 14 5 0 351 339 342
28 327 11 36 23 34 20 358 25 18 340 352 14 10 33 31 30 32 20 38 47 36 42 42 53 54 51 45 38 35 31 31 35 42 45 33 23 35 41 47 47 43 33 27 16 14 6 4 348 340 334 326 316 306
354 13 34 8 22 18 32 21 9 354 346 348 20 37 37 22 28 16 33 51 46 34 33 33 52 61 58 50 45 36 27 36 53 43 36 25 19 38 35 25 15 11 11 9 1 359 354 352 345 344 341 341 335 327
12 13 11 1 357 23 18 12 30 24 21 13 18 53 33 30 43 40 38 22 39 46 58 70 71 63 58 52 43 36 27 20 21 26 16 12 31 24 9 6 359 1 355 359 353 353 350 348 344 348 346 347 341 339
17 17 3 7 8 9 356 20 25 18 62 32 30 17 59 31 35 77 69 48 53 61 50 39 44 40 41 34 31 25 19 15 12 16 14 2 353 351 341 344 348 340 348 351 353 347 343 341 339 340 343 340 342 345
346 10 351 328 346 324 27 25 34 65 73 31 63 92 76 12 67 71 54 33 28 38 36 36 39 36 30 25 21 17 13 11 7 1 2 2 355 349 347 349 6 28 359 348 343 339 338 337 337 336 334 336 340 336
13 49 12 358 13 348 2 3 22 14 359 12 19 351 267 304 72 57 27 7 25 26 28 24 20 19 22 16 10 7 3 2 359 356 357 357 0 0 358 352 346 340 348 341 336 337 335 335 334 333 333 336 346 342
0 14 355 333 333 336 338 31 28 331 345 5 312 301 301 53 55 61 55 60 42 24 23 26 26 22 13 2 357 354 355 359 359 350 340 339 360 13 3 354 349 346 346 342 342 342 340 337 334 333 332 326 320 321
343 350 340 344 348 26 331 351 16 15 3 359 357 357 47 38 65 38 45 37 36 36 23 12 21 15 360 355 352 352 352 353 356 356 358 355 358 359 358 350 345 349 348 346 349 341 340 339 335 328 326 326 324 322
306 11 352 333 14 48 354 32 11 19 352 342 29 67 80 91 52 63 37 7 341 337 10 14 7 2 358 353 354 357 359 3 5 6 5 2 359 354 350 347 345 345 343 340 341 346 348 342 341 338 333 329 330 331
5 11 44 356 45 39 37 42 46 45 46 61 89 106 104 116 126 38 34 25 18 8 358 357 359 358 355 356 358 3 9 8 11 9 0 353 346 340 342 346 345 345 344 344 344 343 345 351 349 349 348 342 338 337
5 13 21 62 53 34 87 84 66 66 75 84 88 110 140 142 103 50 24 3 357 355 356 355 358 360 360 3 3 1 359 1 358 2 359 358 350 352 358 354 353 352 352 355 354 354 353 354 354 353 351 349 346 342
5 13 4 352 89 100 146 135 65 86 102 103 103 126 150 189 94 39 11 11 8 7 5 1 2 2 0 3 0 357 356 350 349 356 1 5 6 7 11 2 5 2 2 0 358 358 357 356 354 353 349 347 345 342
15 34 7 1 11 20 122 137 160 161 210 98 79 41 59 65 75 22 5 1 359 0 1 357 353 356 356 358 356 356 356 346 346 351 1 20 31 36 29 12 12 8 5 360 357 355 355 355 354 353 351 349 346 344
Wind_Speed_850mb
62 62 61 59 56 57 53 48 41 34 29 31 29 28 27 24 26 29 32 31 39 20 48 56 56 60 52 46 20 30 11 8 7 13 19 25 28 38 39 43 48 46 41 37 38 46 47 10 21 20 11 24 31 34
59 56 53 49 51 51 44 36 34 23 25 26 26 27 22 25 24 26 36 35 30 42 38 38 43 51 47 47 58 45 25 7 9 8 5 11 8 17 32 33 50 47 40 33 14 17 20 22 16 13 10 18 23 23
51 48 45 46 48 41 31 27 21 24 22 29 22 20 24 23 21 25 31 26 31 19 48 53 47 45 48 58 61 45 35 25 10 18 9 6 13 9 18 24 33 13 25 35 24 24 25 24 23 16 11 4 21 29
45 47 44 41 46 35 30 24 21 24 23 23 25 21 15 16 18 24 25 23 25 16 9 31 20 12 12 30 48 57 43 9 6 22 16 6 9 11 6 13 9 12 27 14 34 31 35 36 36 25 23 21 21 42
46 43 38 37 36 34 29 26 24 31 24 25 19 15 15 16 21 14 14 12 19 20 9 37 45 23 28 35 33 44 46 36 23 9 6 6 11 7 11 3 11 5 9 8 16 37 43 33 29 28 29 30 33 40
44 41 39 38 38 36 34 30 27 27 26 19 17 18 18 17 23 22 4 4 21 25 11 9 20 9 4 25 25 31 33 24 10 3 10 10 19 20 9 5 16 16 25 25 31 48 55 47 42 35 36 30 28 40
42 41 38 39 39 38 36 37 33 28 27 23 22 22 19 19 19 15 12 14 20 12 5 9 9 7 12 25 31 27 27 24 9 7 10 10 12 26 5 5 15 26 32 32 46 53 44 31 31 30 34 31 25 36
39 40 40 40 38 36 36 38 36 35 32 28 25 23 23 24 20 17 16 10 11 10 9 6 9 10 25 29 23 25 27 23 30 9 7 7 19 6 2 10 29 31 42 48 47 47 44 34 39 38 41 35 30 31
41 41 41 41 39 40 39 39 38 37 32 25 22 16 11 6 6 8 22 11 5 13 4 7 4 7 36 6 8 17 8 8 8 2 4 8 2 5 11 29 43 37 27 36 42 54 55 52 38 31 38 30 24 21
39 39 37 37 38 39 44 48 47 36 22 21 18 8 9 6 20 19 6 7 8 12 13 7 10 9 15 20 13 13 13 5 2 8 9 4 8 28 34 41 44 44 39 39 44 40 44 42 29 25 33 26 15 25
34 34 38 44 51 57 56 51 46 36 26 17 12 9 22 21 10 7 6 7 8 7 10 10 15 12 18 5 10 7 6 10 7 5 2 7 5 13 36 42 46 46 54 55 50 43 35 26 25 15 16 15 16 10
32 37 45 50 59 63 56 48 43 31 22 17 17 16 16 8 8 8 6 8 7 5 5 10 16 13 6 5 6 16 4 2 6 6 7 5 5 16 26 29 28 31 32 30 30 36 28 22 12 9 9 5 3 6
38 44 48 53 69 66 53 43 39 33 16 10 8 9 12 10 8 11 15 6 11 19 8 9 11 9 5 30 12 9 3 9 9 8 6 5 5 10 21 29 30 24 24 22 22 16 8 2 7 6 9 8 11 10
41 44 42 56 70 64 46 38 36 24 13 8 11 9 10 9 9 9 19 18 28 36 32 27 21 9 15 4 9 10 5 4 9 8 9 12 21 13 16 21 25 24 20 22 24 19 17 17 18 12 16 14 15 16
45 42 40 60 61 51 42 32 32 22 14 10 10 9 9 17 33 27 32 33 35 35 28 24 16 5 12 9 12 13 10 12 12 7 6 22 25 16 18 18 19 19 21 20 17 20 19 16 16 17 21 18 15 16
46 27 38 56 53 43 36 22 23 14 7 4 4 5 21 20 30 41 41 40 42 38 25 4 9 10 18 10 14 17 8 10 6 6 13 22 18 15 14 16 17 18 20 21 18 21 20 16 14 17 19 19 20 21
34 28 50 51 49 29 33 19 12 12 14 8 11 32 30 30 29 37 39 43 40 35 16 10 15 12 4 9 9 10 7 7 8 2 15 17 16 14 13 16 19 16 19 21 14 12 10 12 18 17 17 15 15 18
34 42 45 47 46 25 15 18 9 10 11 24 23 31 29 28 33 34 34 36 26 29 30 14 16 22 11 9 7 2 6 9 7 15 15 16 16 16 16 16 17 18 18 17 13 13 16 17 16 16 9 13 2 14
38 38 37 37 34 15 12 12 10 10 13 22 28 26 25 27 28 28 28 24 23 26 19 15 13 11 11 8 22 25 25 23 16 18 20 21 20 22 21 19 23 23 23 25 25 27 22 20 21 25 22 21 21 20
27 23 29 21 27 8 7 8 9 8 14 15 25 23 24 28 28 30 35 37 34 35 22 11 17 25 24 24 25 28 28 27 22 19 23 24 26 26 28 25 24 20 20 18 22 24 21 19 20 21 20 19 20 22
15 17 12 20 10 12 8 11 9 9 10 13 22 15 27 35 37 34 45 33 38 36 26 28 30 29 28 27 29 29 33 31 28 23 19 22 24 20 18 19 17 17 18 20 21 21 21 21 23 24 21 19 17 20
18 19 11 14 11 8 10 14 8 11 9 7 22 29 18 19 23 29 24 30 12 19 21 27 32 38 44 43 40 37 33 25 29 26 19 16 18 16 15 14 15 17 18 20 22 23 24 25 24 26 22 22 22 21
18 16 9 10 8 9 7 13 7 10 8 8 12 8 5 7 12 14 12 20 24 34 31 28 31 32 34 35 40 43 44 37 32 29 27 20 14 15 15 15 17 16 18 21 22 23 25 26 27 26 24 25 24 22
15 9 7 8 11 7 7 9 7 5 6 7 6 5 6 9 8 8 6 9 12 20 31 37 33 31 33 36 42 44 45 39 34 32 30 30 28 23 17 14 16 17 17 20 25 27 29 30 29 26 25 27 25 25
8 9 7 6 3 6 4 5 6 4 6 6 5 4 5 4 4 7 9 16 31 37 31 27 27 31 34 35 37 40 43 42 39 34 33 32 30 27 26 26 25 25 22 25 34 36 35 34 31 29 29 28 28 29
4 4 6 15 9 9 10 9 7 7 6 5 5 5 1 3 4 11 10 31 30 29 31 31 31 31 33 36 38 41 41 38 34 31 30 28 27 26 27 29 29 31 33 35 36 35 35 33 32 31 31 29 28 29
7 10 4 5 7 8 8 5 5 5 5 5 6 6 4 7 12 9 14 21 22 24 25 29 30 30 32 33 35 36 37 36 35 32 28 23 19 21 26 32 34 34 33 28 28 32 32 31 33 33 33 32 33 34
9 13 13 16 9 7 10 14 10 11 13 15 14 11 7 10 7 12 17 20 19 25 33 31 28 25 28 32 34 35 32 34 33 30 25 16 20 24 27 27 29 30 29 27 30 28 27 30 35 34 32 31 32 32
6 12 15 16 9 8 14 14 17 20 29 27 6 9 7 8 12 16 22 18 22 25 24 20 26 28 30 32 32 32 29 33 36 36 33 31 31 32 32 31 31 30 29 29 34 30 29 37 33 28 26 30 32 30
23 16 4 13 23 11 21 23 27 25 28 26 25 32 32 22 9 7 15 16 17 19 24 26 28 31 36 36 33 30 26 29 31 33 33 33 35 33 32 32 32 31 30 30 29 28 32 32 29 27 29 29 31 32
17 24 18 16 15 11 19 17 22 23 24 26 21 20 14 12 12 19 22 22 24 25 27 30 29 30 32 32 31 28 27 27 27 29 33 27 26 27 28 29 28 29 29 29 29 29 32 32 31 31 30 30 31 31
11 9 9 5 10 10 14 6 5 12 10 9 12 9 9 7 6 10 26 30 29 30 28 27 28 28 28 27 26 25 26 24 22 29 35 28 25 24 26 28 29 31 29 28 28 28 29 30 30 30 31 31 32 32
8 19 18 17 9 3 11 11 7 6 6 9 8 8 12 13 11 18 20 30 26 27 27 27 25 25 25 26 28 27 24 22 27 31 39 37 33 30 26 27 28 32 31 29 28 28 29 31 30 31 32 32 33 33
Wind_Direction_850mb
326 322 321 323 321 321 317 314 309 306 304 299 288 285 280 280 276 260 264 250 243 249 264 266 271 276 279 285 263 279 268 165 227 239 238 239 239 236 239 225 209 205 202 217 211 229 235 79 188 229 7 326 315 309
333 330 328 331 330 327 323 320 320 318 307 307 306 295 278 285 287 266 270 279 270 242 256 280 267 266 259 253 269 280 289 300 293 273 343 320 288 289 235 251 210 206 210 207 228 206 83 54 59 61 17 326 319 318
346 344 341 341 341 336 335 332 330 318 308 317 311 301 293 288 283 280 282 264 271 273 285 268 267 273 250 241 237 258 258 244 242 330 315 276 267 315 263 230 221 338 232 214 141 122 104 103 87 80 91 43 18 24
347 347 346 348 354 351 351 354 349 345 333 330 320 307 300 294 288 281 277 271 265 263 277 294 275 280 252 230 220 218 229 139 345 327 300 260 282 336 261 327 337 37 284 129 103 119 106 91 83 91 83 74 61 48
350 350 351 356 360 359 356 348 339 339 340 331 325 322 311 307 314 316 296 284 256 244 286 296 301 278 235 219 210 213 224 248 276 312 285 265 286 322 291 266 3 15 22 349 208 151 88 104 93 101 96 86 78 80
8 10 8 7 4 3 0 355 350 343 338 332 323 320 318 325 341 310 269 331 262 252 282 300 312 268 246 183 188 196 208 212 205 308 270 267 271 342 316 48 6 343 291 324 81 104 109 105 100 90 77 78 80 86
13 11 8 9 9 1 356 354 348 341 337 325 320 311 302 294 302 294 302 306 305 238 266 284 270 254 178 165 178 182 185 171 148 234 251 286 310 353 329 35 29 23 65 96 107 107 93 90 84 81 62 53 61 73
4 1 3 1 2 3 0 358 351 345 334 324 316 311 304 299 292 273 360 294 219 244 245 272 287 286 180 162 150 170 175 173 195 214 297 307 332 296 281 116 92 77 81 75 85 93 96 86 70 63 59 52 30 52
5 6 5 5 5 0 356 357 349 339 340 337 330 321 305 264 280 299 333 346 316 223 296 244 256 268 159 266 178 150 156 202 77 76 260 203 266 268 96 77 72 75 83 96 85 83 82 67 58 59 62 42 26 39
6 5 6 8 5 358 351 348 349 343 345 7 5 289 285 332 307 296 226 226 226 216 222 257 286 301 13 180 142 138 179 82 243 225 205 105 39 54 80 80 86 85 90 93 81 70 74 72 35 49 47 30 26 29
7 11 5 1 357 349 342 341 345 353 6 351 326 303 310 312 306 247 248 224 228 243 230 305 316 333 43 4 37 4 154 179 202 163 184 75 350 53 70 81 87 92 88 84 85 82 91 86 64 31 39 28 358 21
1 1 360 359 358 354 350 345 342 345 323 307 313 311 333 337 308 309 304 287 258 325 102 304 326 322 173 269 269 173 198 104 83 242 86 69 322 68 70 78 83 90 88 96 91 85 86 71 52 339 118 114 61 22
351 349 349 355 357 354 352 353 351 348 1 359 332 330 351 0 348 339 355 329 341 348 307 270 296 351 239 215 238 150 108 51 120 58 43 94 206 78 74 107 104 99 101 102 112 102 76 153 116 88 74 61 105 78
346 347 350 359 356 350 350 355 1 15 26 25 7 17 22 344 334 337 327 333 312 353 352 0 327 348 345 308 75 342 85 160 71 58 28 98 95 73 58 80 105 101 97 100 99 89 82 68 56 51 77 77 79 69
340 343 353 356 348 350 354 353 13 28 12 37 27 12 348 304 303 286 314 345 352 340 343 346 283 350 16 30 14 9 41 45 30 26 64 103 125 112 93 84 79 88 96 91 81 74 57 54 62 58 54 65 69 87
343 3 337 344 350 350 355 10 14 352 354 23 72 1 343 331 357 2 359 358 350 327 321 323 352 27 29 23 20 13 36 31 13 354 80 103 89 91 92 87 80 64 57 83 86 72 57 51 62 63 55 50 44 46
349 334 338 345 352 353 14 24 11 14 14 15 336 15 360 358 356 359 352 354 346 2 2 16 30 26 85 37 39 28 352 301 276 308 69 62 63 59 54 63 68 72 52 58 68 68 22 35 50 48 34 23 41 33
327 327 340 345 351 13 8 13 8 16 17 22 10 7 357 4 4 357 1 7 13 12 35 50 39 40 46 33 45 102 292 330 61 78 82 72 60 53 54 58 61 66 68 50 32 44 48 21 24 46 62 13 186 56
326 331 341 349 357 34 7 14 16 9 15 35 3 11 11 14 15 17 15 21 31 32 51 40 48 39 56 60 24 33 41 33 48 63 59 52 54 49 54 58 63 63 64 52 40 46 57 43 25 13 11 6 3 30
328 330 354 3 25 17 360 15 5 354 13 351 15 15 23 18 24 29 33 38 52 58 63 67 64 52 44 41 31 28 25 26 34 56 50 55 67 60 59 60 59 59 61 54 49 35 28 18 14 5 0 351 339 342
28 327 11 36 23 34 20 358 25 18 340 352 14 10 33 31 30 32 20 38 47 36 42 42 53 54 51 45 38 35 31 31 35 42 45 33 23 35 41 47 47 43 33 27 16 14 6 4 348 340 334 326 316 306
354 13 34 8 22 18 32 21 9 354 346 348 20 37 37 22 28 16 33 51 46 34 33 33 52 61 58 50 45 36 27 36 53 43 36 25 19 38 35 25 15 11 11 9 1 359 354 352 345 344 341 341 335 327
12 13 11 1 357 23 18 12 30 24 21 13 18 53 33 30 43 40 38 22 39 46 58 70 71 63 58 52 43 36 27 20 21 26 16 12 31 24 9 6 359 1 355 359 353 353 350 348 344 348 346 347 341 339
17 17 3 7 8 9 356 20 25 18 62 32 30 17 59 31 35 77 69 48 53 61 50 39 44 40 41 34 31 25 19 15 12 16 14 2 353 351 341 344 348 340 348 351 353 347 343 341 339 340 343 340 342 345
346 10 351 328 346 324 27 25 34 65 73 31 63 92 76 12 67 71 54 33 28 38 36 36 39 36 30 25 21 17 13 11 7 1 2 2 355 349 347 349 6 28 359 348 343 339 338 337 337 336 334 336 340 336
13 49 12 358 13 348 2 3 22 14 359 12 19 351 267 304 72 57 27 7 25 26 28 24 20 19 22 16 10 7 3 2 359 356 357 357 0 0 358 352 346 340 348 341 336 337 335 335 334 333 333 336 346 342
0 14 355 333 333 336 338 31 28 331 345 5 312 301 301 53 55 61 55 60 42 24 23 26 26 22 13 2 357 354 355 359 359 350 340 339 360 13 3 354 349 346 346 342 342 342 340 337 334 333 332 326 320 321
343 350 340 344 348 26 331 351 16 15 3 359 357 357 47 38 65 38 45 37 36 36 23 12 21 15 360 355 352 352 352 353 356 356 358 355 358 359 358 350 345 349 348 346 349 341 340 339 335 328 326 326 324 322
306 11 352 333 14 48 354 32 11 19 352 342 29 67 80 91 52 63 37 7 341 337 10 14 7 2 358 353 354 357 359 3 5 6 5 2 359 354 350 347 345 345 343 340 341 346 348 342 341 338 333 329 330 331
5 11 44 356 45 39 37 42 46 45 46 61 89 106 104 116 126 38 34 25 18 8 358 357 359 358 355 356 358 3 9 8 11 9 0 353 346 340 342 346 345 345 344 344 344 343 345 351 349 349 348 342 338 337
5 13 21 62 53 34 87 84 66 66 75 84 88 110 140 142 103 50 24 3 357 355 356 355 358 360 360 3 3 1 359 1 358 2 359 358 350 352 358 354 353 352 352 355 354 354 353 354 354 353 351 349 346 342
5 13 4 352 89 100 146 135 65 86 102 103 103 126 150 189 94 39 11 11 8 7 5 1 2 2 0 3 0 357 356 350 349 356 1 5 6 7 11 2 5 2 2 0 358 358 357 356 354 353 349 347 345 342
15 34 7 1 11 20 122 137 160 161 210 98 79 41 59 65 75 22 5 1 359 0 1 357 353 356 356 358 356 356 356 346 346 351 1 20 31 36 29 12 12 8 5 360 357 355 355 355 354 353 351 349 346 344